Time,TemperatureF,DewpointF,PressureIn,WindDirection,WindDirectionDegrees,WindSpeedMPH,WindSpeedGustMPH,Humidity,HourlyPrecipIn,Conditions,Clouds,dailyrainin,SolarRadiationWatts/m^2,SoftwareType,DateUTC
2013-01-17 00:43:00,46.0,-12.0,-100.00,West,261,7.0,13.0,8,0.00,,,0.00,0.000000,,2013-01-17 08:43:00,
2013-01-17 00:53:00,46.0,-12.0,-100.00,West,261,7.0,13.0,8,0.00,,,0.00,0.000000,,2013-01-17 08:53:00,
2013-01-17 01:43:00,47.0,-17.0,-100.00,South,181,7.0,26.0,6,0.00,,,0.00,0.000000,,2013-01-17 09:43:00,
2013-01-17 01:52:00,47.0,-17.0,-100.00,South,181,7.0,26.0,6,0.00,,,0.00,0.000000,,2013-01-17 09:52:00,
2013-01-17 02:43:00,45.0,-18.0,-100.00,West,267,5.0,14.0,6,-99.99,,,0.00,0.000000,,2013-01-17 10:43:00,
2013-01-17 02:53:00,45.0,-18.0,-100.00,West,267,5.0,14.0,6,-99.99,,,0.00,0.000000,,2013-01-17 10:53:00,
2013-01-17 03:43:00,46.0,-21.0,-100.00,West,269,3.0,12.0,5,0.00,,,0.00,0.000000,,2013-01-17 11:43:00,
2013-01-17 03:53:00,46.0,-21.0,-100.00,West,269,3.0,12.0,5,0.00,,,0.00,0.000000,,2013-01-17 11:53:00,
2013-01-17 04:43:00,45.0,-15.0,-100.00,WNW,282,8.0,14.0,7,-99.99,,,0.00,0.000000,,2013-01-17 12:43:00,
2013-01-17 04:53:00,45.0,-15.0,-100.00,WNW,282,8.0,14.0,7,-99.99,,,0.00,0.000000,,2013-01-17 12:53:00,
2013-01-17 05:43:00,45.0,-15.0,-100.00,West,280,9.0,13.0,7,0.00,,,0.00,0.000000,,2013-01-17 13:43:00,
2013-01-17 05:53:00,45.0,-15.0,-100.00,West,280,9.0,13.0,7,0.00,,,0.00,0.000000,,2013-01-17 13:53:00,
2013-01-17 06:43:00,46.0,-18.0,-100.00,West,273,7.0,11.0,6,0.00,,,0.00,0.000000,,2013-01-17 14:43:00,
2013-01-17 06:53:00,46.0,-18.0,-100.00,West,273,7.0,11.0,6,0.00,,,0.00,0.000000,,2013-01-17 14:53:00,
2013-01-17 07:43:00,46.0,-18.0,-100.00,West,281,8.0,12.0,6,-99.99,,,0.00,1.000000,,2013-01-17 15:43:00,
2013-01-17 07:53:00,46.0,-18.0,-100.00,West,281,8.0,12.0,6,-99.99,,,0.00,1.000000,,2013-01-17 15:53:00,
2013-01-17 08:53:00,52.0,-17.0,-100.00,West,259,5.0,11.0,5,-99.99,,,-99.99,95.000000,,2013-01-17 16:53:00,
2013-01-17 09:43:00,55.0,-8.0,-100.00,West,262,7.0,11.0,7,-99.99,,,0.00,338.000000,,2013-01-17 17:43:00,
2013-01-17 09:53:00,55.0,-8.0,-100.00,West,262,7.0,11.0,7,-99.99,,,0.00,338.000000,,2013-01-17 17:53:00,
2013-01-17 10:44:00,63.0,-5.0,-100.00,SE,146,5.0,10.0,6,-99.99,,,0.00,539.000000,,2013-01-17 18:44:00,
2013-01-17 10:53:00,63.0,-5.0,-100.00,SE,146,5.0,10.0,6,-99.99,,,0.00,539.000000,,2013-01-17 18:53:00,
2013-01-17 11:53:00,67.0,-6.0,-100.00,SE,131,5.0,9.0,5,-99.99,,,0.00,631.000000,,2013-01-17 19:53:00,
2013-01-17 12:43:00,68.0,-5.0,-100.00,ESE,102,2.0,13.0,5,-99.99,,,0.00,629.000000,,2013-01-17 20:43:00,
2013-01-17 12:53:00,68.0,-5.0,-100.00,ESE,102,2.0,13.0,5,-99.99,,,0.00,629.000000,,2013-01-17 20:53:00,
2013-01-17 13:43:00,72.0,15.0,-100.00,SE,129,2.0,7.0,11,-99.99,,,0.00,756.000000,,2013-01-17 21:43:00,
2013-01-17 14:43:00,71.0,18.0,-100.00,ESE,105,2.0,5.0,13,-99.99,,,0.00,531.000000,,2013-01-17 22:43:00,
2013-01-17 14:52:00,71.0,18.0,-100.00,ESE,105,2.0,5.0,13,-99.99,,,0.00,531.000000,,2013-01-17 22:52:00,
2013-01-17 15:43:00,68.0,22.0,-100.00,NE,43,1.0,5.0,17,-99.99,,,0.00,491.000000,,2013-01-17 23:43:00,
2013-01-17 15:53:00,68.0,22.0,-100.00,NE,43,1.0,5.0,17,-99.99,,,0.00,491.000000,,2013-01-17 23:53:00,
2013-01-17 16:43:00,61.0,21.0,-100.00,NW,314,1.0,3.0,21,-99.99,,,0.00,274.000000,,2013-01-18 00:43:00,
2013-01-17 16:53:00,61.0,21.0,-100.00,NW,314,1.0,3.0,21,-99.99,,,0.00,274.000000,,2013-01-18 00:53:00,
2013-01-17 17:43:00,50.0,16.0,-100.00,West,275,2.0,6.0,25,-99.99,,,0.00,23.000000,,2013-01-18 01:43:00,
2013-01-17 17:53:00,50.0,16.0,-100.00,West,275,2.0,6.0,25,-99.99,,,0.00,23.000000,,2013-01-18 01:53:00,
2013-01-17 18:02:00,50.0,16.0,-100.00,West,275,2.0,6.0,25,-99.99,,,0.00,23.000000,,2013-01-18 02:02:00,
2013-01-17 18:12:00,50.0,16.0,-100.00,West,275,2.0,6.0,25,-99.99,,,0.00,23.000000,,2013-01-18 02:12:00,
2013-01-17 18:22:00,50.0,16.0,-100.00,West,275,2.0,6.0,25,-99.99,,,0.00,23.000000,,2013-01-18 02:22:00,
2013-01-17 18:43:00,46.0,14.0,-100.00,West,271,4.0,6.0,27,0.00,,,0.00,0.000000,,2013-01-18 02:43:00,
2013-01-17 18:53:00,46.0,14.0,-100.00,West,271,4.0,6.0,27,0.00,,,0.00,0.000000,,2013-01-18 02:53:00,
2013-01-17 19:12:00,46.0,14.0,-100.00,West,271,4.0,6.0,27,0.00,,,0.00,0.000000,,2013-01-18 03:12:00,
2013-01-17 19:22:00,46.0,14.0,-100.00,West,271,4.0,6.0,27,0.00,,,0.00,0.000000,,2013-01-18 03:22:00,
2013-01-17 19:43:00,47.0,9.0,-100.00,West,279,4.0,7.0,21,0.00,,,0.00,0.000000,,2013-01-18 03:43:00,
2013-01-17 19:52:00,47.0,9.0,-100.00,West,279,4.0,7.0,21,0.00,,,0.00,0.000000,,2013-01-18 03:52:00,
2013-01-17 20:02:00,47.0,9.0,-100.00,West,279,4.0,7.0,21,0.00,,,0.00,0.000000,,2013-01-18 04:02:00,
2013-01-17 20:42:00,46.0,4.0,-100.00,WNW,282,4.0,7.0,17,-99.99,,,0.00,0.000000,,2013-01-18 04:42:00,
2013-01-17 20:53:00,46.0,4.0,-100.00,WNW,282,4.0,7.0,17,-99.99,,,0.00,0.000000,,2013-01-18 04:53:00,
2013-01-17 21:43:00,44.0,2.0,-100.00,West,266,6.0,7.0,17,-99.99,,,-99.99,0.000000,,2013-01-18 05:43:00,
2013-01-17 21:53:00,44.0,2.0,-100.00,West,266,6.0,7.0,17,-99.99,,,-99.99,0.000000,,2013-01-18 05:53:00,
2013-01-17 22:12:00,44.0,2.0,-100.00,West,266,6.0,7.0,17,-99.99,,,-99.99,0.000000,,2013-01-18 06:12:00,
2013-01-17 22:22:00,44.0,2.0,-100.00,West,266,6.0,7.0,17,-99.99,,,-99.99,0.000000,,2013-01-18 06:22:00,
2013-01-17 22:43:00,43.0,0.0,-100.00,West,260,3.0,7.0,16,0.00,,,0.00,0.000000,,2013-01-18 06:43:00,
2013-01-17 22:52:00,43.0,0.0,-100.00,West,260,3.0,7.0,16,0.00,,,0.00,0.000000,,2013-01-18 06:52:00,
2013-01-17 23:02:00,43.0,0.0,-100.00,West,260,3.0,7.0,16,0.00,,,0.00,0.000000,,2013-01-18 07:02:00,
2013-01-17 23:42:00,44.0,-4.0,-100.00,WNW,287,5.0,7.0,13,0.00,,,0.00,0.000000,,2013-01-18 07:42:00,
2013-01-17 23:52:00,44.0,-4.0,-100.00,WNW,287,5.0,7.0,13,0.00,,,0.00,0.000000,,2013-01-18 07:52:00,